North Adams, MA

5:28 PM EDT on July 20, 2017 (GMT -0400)
Harriman And West

Weather History for KAQW - November, 2013

Change the Weather History Date:

Tuesday, November 5, 2013

  Actual Average Record
Temperature  
Mean Temperature 38 °F -  
Max Temperature 50 °F 49 °F 73 °F (2015)
Min Temperature 27 °F 31 °F 21 °F (2011)
Degree Days  
Heating Degree Days 26    
Moisture  
Dew Point 23 °F    
Average Humidity 54    
Maximum Humidity 69    
Minimum Humidity 41    
Precipitation  
Precipitation 0.00 in - - ()
Sea Level Pressure  
Sea Level Pressure 30.60 in    
Wind  
Wind Speed 4 mph (ESE)    
Max Wind Speed 10 mph    
Max Gust Speed -    
Visibility 10 miles    
Events      
Averages and records for this station are not official NWS values.
T = Trace of Precipitation, MM = Missing Value Source: NWS Daily Summary

Daily Weather History Graph

Daily Weather History Graph

Search for Another Location

Airport or City:

Trip Planner

Search our weather history database for the weather conditions in past years. The results will help you decide how hot, cold, wet, or windy it might be!

Date:

Astronomy

Nov. 05, 2013 Rise Set
Actual Time 6:31 AM EST 4:40 PM EST
Civil Twilight 6:02 AM EST 5:09 PM EST
Nautical Twilight 5:28 AM EST 5:43 PM EST
Astronomical Twilight 4:55 AM EST 6:16 PM EST
Moon 8:46 AM EST (11/5) 6:36 PM EST (11/5)
Length of Visible Light 11h 07m
Length of Day
10h 08m
Waxing Crescent, 6% of the Moon is Illuminated
Nov 5
Waxing Crescent
Nov 10
First Quarter
Nov 17
Full
Nov 25
Last Quarter
Dec 2
New

Hourly Weather History & Observations

Time (EST) Temp. Windchill Dew Point Humidity Pressure Visibility Wind Dir Wind Speed Gust Speed Precip Events Conditions
12:52 AM 27.0 °F - 18.0 °F 69% 30.69 in 10.0 mi Calm Calm - N/A   Clear
1:52 AM 27.0 °F - 18.0 °F 69% 30.68 in 10.0 mi Calm Calm - N/A   Clear
2:52 AM 30.9 °F 24.3 °F 16.0 °F 54% 30.66 in 10.0 mi East 6.9 mph - N/A   Clear
3:52 AM 32.0 °F 24.8 °F 12.9 °F 45% 30.66 in 10.0 mi ESE 8.1 mph - N/A   Clear
4:52 AM 30.9 °F 22.2 °F 14.0 °F 50% 30.67 in 10.0 mi ESE 10.4 mph - N/A   Clear
5:52 AM 30.0 °F 21.7 °F 14.0 °F 51% 30.67 in 10.0 mi ESE 9.2 mph - N/A   Clear
6:52 AM 30.0 °F 23.2 °F 15.1 °F 54% 30.69 in 10.0 mi ESE 6.9 mph - N/A   Mostly Cloudy
7:52 AM 32.0 °F 25.6 °F 16.0 °F 52% 30.67 in 10.0 mi East 6.9 mph - N/A   Scattered Clouds
8:52 AM 36.0 °F 30.3 °F 16.0 °F 44% 30.68 in 10.0 mi ESE 6.9 mph - N/A   Overcast
9:52 AM 39.9 °F 34.5 °F 18.0 °F 41% 30.66 in 10.0 mi East 8.1 mph - N/A   Clear
10:52 AM 45.0 °F 42.6 °F 23.0 °F 42% 30.64 in 10.0 mi Variable 4.6 mph - N/A   Clear
11:52 AM 46.9 °F - 26.1 °F 44% 30.62 in 10.0 mi SSW 6.9 mph - N/A   Clear
12:52 PM 48.9 °F - 26.1 °F 41% 30.58 in 10.0 mi SSW 8.1 mph - N/A   Clear
1:52 PM 50.0 °F - 27.0 °F 41% 30.56 in 10.0 mi Calm Calm - N/A   Clear
2:52 PM 50.0 °F - 27.0 °F 41% 30.55 in 10.0 mi SW 4.6 mph - N/A   Clear
3:52 PM 48.0 °F - 28.9 °F 48% 30.54 in 10.0 mi Calm Calm - N/A   Clear
4:52 PM 42.1 °F 40.2 °F 28.9 °F 60% 30.54 in 10.0 mi East 3.5 mph - N/A   Clear
5:52 PM 41.0 °F 38.0 °F 30.0 °F 65% 30.54 in 10.0 mi East 4.6 mph - N/A   Clear
6:52 PM 42.1 °F 38.4 °F 28.9 °F 60% 30.55 in 10.0 mi Variable 5.8 mph - N/A   Clear
7:52 PM 41.0 °F 39.0 °F 28.9 °F 62% 30.55 in 10.0 mi East 3.5 mph - N/A   Clear
8:52 PM 41.0 °F - 28.9 °F 62% 30.53 in 10.0 mi Calm Calm - N/A   Partly Cloudy
9:52 PM 41.0 °F 36.4 °F 30.0 °F 65% 30.52 in 10.0 mi ESE 6.9 mph - N/A   Clear
10:52 PM 41.0 °F 38.0 °F 30.0 °F 65% 30.50 in 10.0 mi SE 4.6 mph - N/A   Clear
11:52 PM 41.0 °F - 30.9 °F 67% 30.49 in 10.0 mi Calm Calm - N/A   Clear